sat.trackr.live / text

‹ back to catalog

HJS-6C

NORAD 63430 · 2025-067C

PAYLOAD ACTIVE UNKNOWN

§ Identity

Operator
Country
PRC
Launch date
2025-04-01
Launch site
JSC
Launch vehicle
Mass (kg)
RCS (m²)

External: N2YO · Heavens-Above · Gunter

§ Orbital elements

Epoch: 2026-09-21T18:53:50.808768Z

Period
94.78 min
Inclination
55.0020°
Eccentricity
0.0005188
Mean motion
15.19291315 rev/d
Perigee alt
504.4 km
Apogee alt
511.6 km
Semi-major
6,886.1 km
B*
4.2557e-4
RAAN
325.5606°
Arg perigee
178.1915°
Mean anomaly
181.9124°
Rev number
8,261

§ Raw data

HJS-6C1 63430U 25067C   26264.78739362  .00008780  00000+0  42557-3 0  99992 63430  55.0020 325.5606 0005188 178.1915 181.9124 15.19291315 82611

JSON: /api/v1/satellites/63430 · /tle

For live sub-satellite position, see the globe view (requires WebGL).

§ Visibility from observer

Set your observer location to see the next 7 days of passes ≥ 10°. The values pass through the URL so the page stays shareable.

No JS? Fill the form by hand. The geolocation button needs JavaScript.